Airfield :
LOGIN :

Register | Disclaimer

   EN    FR    IT 

 










Legend :    VFR   Marginal VFR   IFR   Intensive IFR   Very Intensive IFR
Visi :
Ceiling :
>= 8 km
>= 3000ft
5 to 8 km
1000 to 3000 ft
1500m to 5 km
500 to 1000 ft
800 to 1500m
200 to 500 ft
< 800m
< 200 ft
Symbols :   Thunderstorms  Fog  Heavy snow  Heavy precipitations  Wind > 20 kt
SIGMETs :     Misc.  Thunderstorms  Icing  Turbulence  Mountain Waves  Volcanic Ashes







- Airport Elevation : 2425 ft


ETHA - Altenstadt Army

CURRENT METAR :
  • 231420Z 27017KT 9999 FEW060 BKN250 22/07 Q1020 BLU+BLU+

EXPIRED METARs :
  • 231320Z 28017KT 9999 SCT060 SCT130 22/09 Q1020 BLU+BLU+
  • 231220Z 28017KT 9999 SCT050 SCT140 BKN280 21/09 Q1020 BLU+BLU+

TAF TAF ETHA
Valid from the 23 at 14:00 until the 23 at 23:00 UTC


231320Z 2314/2323 28015G25KT 9999 NSW SCT060 BKN250
PROB30 2318/2321 32020G30KT 4000 TSRA SCT020 BKN030CB
No reported NOTAMs for that airfield.



MET'MAP, your aeronautical weather chart ! - Copyright ORBIFLY December 2007 - Disclaimer

ORBIFLY MET'MAP TEAM :

Programming & Development : Alexandra Zaïnal
Concept & Development : Baudouin d'Aumeries
Co-Development & Prog : Marc-Olivier Méhu
Technical & hardware support : Manuel Goepfert

Contact : metmap@orbifly.com




SOURCES & CREDITS :

   NOAA